Location: Civry
(47.2902°N, 4.6156°E)
Time: 04:14:18
(UTC+00:00)

Cosmos 1908 - Pass Details

Date: 09 April 2020
Orbit: 511 x 532 km, 82.5° (Epoch: 06 June)

Event Time Altitude Azimuth Distance (km) Brightness Sun altitude
Rises 19:05:10 0° 180° (S) 2,635 6.6 -7.7°
Reaches altitude 10° 19:07:18 10° 177° (S) 1,756 5.7 -8.0°
Maximum altitude 19:11:07 63° 96° (E) 589 3.2 -8.6°
Drops below altitude 10° 19:14:59 10° 15° (NNE) 1,783 6.0 -9.2°
Sets 19:17:10 0° 13° (NNE) 2,681 7.0 -9.6°
